Weather History for PASC - April, 2013

Change the Weather History Date:

Thursday, April 25, 2013

  Actual Average Record
Temperature  
Mean Temperature 5 °F -  
Max Temperature 10 °F 14 °F 39 °F (1990)
Min Temperature 0 °F 1 °F -26 °F (1987)
Degree Days  
Heating Degree Days 60    
Moisture  
Dew Point 2 °F    
Average Humidity 81    
Maximum Humidity 87    
Minimum Humidity 73    
Precipitation  
Precipitation 0.00 in - - ()
Sea Level Pressure  
Sea Level Pressure 30.25 in    
Wind  
Wind Speed 17 mph (WSW)    
Max Wind Speed 22 mph    
Max Gust Speed -    
Visibility 4 miles    
Events Snow    
Averages and records for this station are not official NWS values.
T = Trace of Precipitation, MM = Missing Value Source: NWS Daily Summary

Daily Weather History Graph

Daily Weather History Graph

Search for Another Location

Airport or City:

Trip Planner

Search our weather history database for the weather conditions in past years. The results will help you decide how hot, cold, wet, or windy it might be!

Date:

Astronomy

Apr. 25, 2013 Rise Set
Actual Time 4:53 AM AKDT 10:54 PM AKDT
Civil Twilight 2:43 AM AKDT 1:19 AM AKDT
Nautical Twilight Sun does not rise Sun does not rise
Astronomical Twilight Sun does not rise Sun does not rise
Moon 11:56 PM AKDT (4/25) 4:46 AM AKDT (4/25)
Length of Visible Light 22h 36m
Length of Day
18h 01m
Full, 100% of the Moon is Illuminated
Apr 25
Full
May 2
Last Quarter
May 9
New
May 17
First Quarter
May 24
Full

Hourly Weather History & Observations

Time (AKDT) Temp. Windchill Dew Point Humidity Pressure Visibility Wind Dir Wind Speed Gust Speed Precip Events Conditions
12:53 AM -0.0 °F -18.7 °F -4.0 °F 83% 30.32 in 10.0 mi WSW 13.8 mph - N/A   Overcast
1:53 AM 1.9 °F -16.9 °F -2.0 °F 83% 30.33 in 10.0 mi West 15.0 mph - N/A   Overcast
2:53 AM 1.0 °F -17.3 °F -2.9 °F 83% 30.33 in 10.0 mi WSW 13.8 mph - N/A   Mostly Cloudy
3:53 AM 1.9 °F -17.5 °F -2.9 °F 80% 30.33 in 10.0 mi WSW 16.1 mph - N/A   Overcast
4:53 AM 1.9 °F -18.1 °F -2.9 °F 80% 30.32 in 10.0 mi WSW 17.3 mph - N/A   Overcast
5:16 AM 1.4 °F -19.4 °F -2.2 °F 85% 30.31 in 2.5 mi WSW 18.4 mph - 0.00 in Snow Light Snow
5:21 AM 1.4 °F -19.9 °F -2.2 °F 85% 30.30 in 1.5 mi WSW 19.6 mph - 0.00 in Snow Light Snow
5:45 AM 1.4 °F -21.0 °F -2.2 °F 85% 30.30 in 1.5 mi WSW 21.9 mph - 0.00 in Snow Light Snow
5:53 AM 1.9 °F -19.8 °F -2.0 °F 83% 30.31 in 1.5 mi WSW 20.7 mph - 0.00 in Snow Light Snow
6:53 AM 3.0 °F -17.8 °F -0.9 °F 84% 30.30 in 2.0 mi WSW 19.6 mph - 0.00 in Snow Light Snow
7:53 AM 3.9 °F -15.6 °F -0.0 °F 84% 30.31 in 2.0 mi WSW 17.3 mph - 0.00 in Snow Light Snow
8:29 AM 5.0 °F -15.2 °F 1.4 °F 85% 30.29 in 1.5 mi West 19.6 mph - 0.00 in Snow Light Snow
8:53 AM 5.0 °F -15.7 °F 1.0 °F 84% 30.30 in 1.5 mi West 20.7 mph - 0.00 in Snow Light Snow
9:53 AM 6.1 °F -13.8 °F 1.9 °F 83% 30.30 in 2.5 mi West 19.6 mph - 0.00 in Snow Light Snow
10:33 AM 6.8 °F -12.4 °F 3.2 °F 85% 30.29 in 1.5 mi West 18.4 mph - 0.00 in Snow Light Snow
10:53 AM 7.0 °F -12.1 °F 3.0 °F 84% 30.30 in 1.5 mi West 18.4 mph - 0.00 in Snow Light Snow
11:53 AM 8.1 °F -10.2 °F 3.9 °F 83% 30.30 in 1.5 mi West 17.3 mph - 0.00 in Snow Light Snow
12:53 PM 9.0 °F -9.5 °F 3.9 °F 80% 30.30 in 2.0 mi West 18.4 mph - 0.00 in Snow Light Snow
1:28 PM 8.6 °F -10.0 °F 3.2 °F 79% 30.28 in 3.0 mi West 18.4 mph - 0.00 in Snow Light Snow
1:53 PM 10.0 °F -8.6 °F 3.9 °F 76% 30.28 in 3.0 mi WSW 19.6 mph - 0.00 in Snow Light Snow
2:00 PM 10.4 °F -8.2 °F 3.2 °F 73% 30.27 in 4.0 mi West 19.6 mph - 0.00 in Snow Light Snow
2:11 PM 10.4 °F -8.2 °F 5.0 °F 79% 30.27 in 4.0 mi West 19.6 mph - 0.00 in Snow Light Snow
2:25 PM 10.4 °F -7.7 °F 3.2 °F 73% 30.26 in 5.0 mi West 18.4 mph - 0.00 in Snow Light Snow
2:53 PM 10.0 °F -9.1 °F 3.9 °F 76% 30.27 in 4.0 mi West 20.7 mph - 0.00 in Snow Light Snow
3:18 PM 10.4 °F -8.6 °F 5.0 °F 79% 30.25 in 3.0 mi West 20.7 mph - 0.00 in Snow Light Snow
3:53 PM 10.0 °F -8.6 °F 5.0 °F 80% 30.25 in 3.0 mi West 19.6 mph - 0.00 in Snow Light Snow
4:53 PM 10.0 °F -8.1 °F 3.9 °F 76% 30.24 in 3.0 mi West 18.4 mph - 0.00 in Snow Light Snow
5:45 PM 8.6 °F -9.5 °F 3.2 °F 79% 30.21 in 3.0 mi West 17.3 mph - 0.00 in Snow Light Snow
5:53 PM 10.0 °F -7.1 °F 5.0 °F 80% 30.22 in 3.0 mi West 16.1 mph - 0.00 in Snow Light Snow
6:04 PM 8.6 °F -10.0 °F 3.2 °F 79% 30.21 in 3.0 mi West 18.4 mph - 0.00 in Snow Light Snow
6:53 PM 10.0 °F -7.1 °F 5.0 °F 80% 30.19 in 5.0 mi West 16.1 mph - 0.00 in Snow Light Snow
7:53 PM 9.0 °F -7.3 °F 3.9 °F 80% 30.17 in 5.0 mi West 13.8 mph - 0.00 in Snow Light Snow
8:13 PM 8.6 °F -7.7 °F 3.2 °F 79% 30.15 in 3.0 mi West 13.8 mph - 0.00 in Snow Light Snow
8:53 PM 7.0 °F -6.6 °F 3.0 °F 84% 30.14 in 7.0 mi WSW 9.2 mph - 0.00 in Snow Light Snow
9:53 PM 8.1 °F -4.3 °F 3.9 °F 83% 30.12 in 4.0 mi WSW 8.1 mph - 0.00 in Snow Light Snow
10:03 PM 8.6 °F -4.7 °F 3.2 °F 79% 30.10 in 1.8 mi WSW 9.2 mph - 0.00 in Snow Light Snow
10:53 PM 9.0 °F -5.1 °F 5.0 °F 84% 30.09 in 1.5 mi WSW 10.4 mph - 0.00 in Snow Light Snow
11:53 PM 8.1 °F -6.2 °F 5.0 °F 87% 30.05 in 1.8 mi WSW 10.4 mph - 0.00 in Snow Light Snow